GW1804 Weather Reports


time (UTC)temp
C
wind
direction
speed
KPH
gust
KPH
rain 1hr
cm
rain 24hr
cm
rain mn
cm
humidity
%
barometer
mb
20260903064031 18 0 0.0 1.6 0.00 0.00 0.00 84 1015.1
20260903063532 18 0 0.0 1.6 0.00 0.00 0.00 84 1015.1
20260903063125 18 0 0.0 1.6 0.00 0.00 0.00 84 1015.2
20260903062535 18 0 0.0 1.6 0.00 0.00 0.00 84 1015.2
20260903062034 18 0 0.0 0.0 0.00 0.00 0.00 84 1015.2
20260903061556 18 0 0.0 0.0 0.00 0.00 0.00 84 1015.2
20260903061031 18 0 0.0 0.0 0.00 0.00 0.00 84 1015.2
20260903060533 18 0 0.0 1.6 0.00 0.00 0.00 84 1015.2
20260903060104 18 0 0.0 1.6 0.00 0.00 0.00 84 1015.3
20260903055533 18 0 0.0 0.0 0.00 0.00 0.00 83 1015.3
20260903055032 19 0 0.0 1.6 0.00 0.00 0.00 83 1015.3
20260903054602 19 0 0.0 1.6 0.00 0.00 0.00 83 1015.3
20260903054034 19 0 0.0 1.6 0.00 0.00 0.00 83 1015.3
20260903053536 19 0 0.0 1.6 0.00 0.00 0.00 82 1015.4
20260903053059 19 0 0.0 1.6 0.00 0.00 0.00 82 1015.4
20260903052532 19 0 0.0 1.6 0.00 0.00 0.00 82 1015.4
20260903052032 19 0 0.0 1.6 0.00 0.00 0.00 82 1015.4
20260903051555 19 0 0.0 0.0 0.00 0.00 0.00 82 1015.4
20260903051032 19 0 0.0 0.0 0.00 0.00 0.00 82 1015.5
20260903050534 19 0 0.0 0.0 0.00 0.00 0.00 81 1015.5
20260903050055 19 0 0.0 0.0 0.00 0.00 0.00 81 1015.5
20260903045532 20 0 0.0 0.0 0.00 0.00 0.00 81 1015.5
20260903045032 20 0 0.0 0.0 0.00 0.00 0.00 81 1015.4
20260903044550 20 0 0.0 0.0 0.00 0.00 0.00 81 1015.4
20260903044032 20 0 0.0 0.0 0.00 0.00 0.00 81 1015.4
20260903043532 20 0 0.0 0.0 0.00 0.00 0.00 81 1015.4
20260903043111 20 0 0.0 0.0 0.00 0.00 0.00 81 1015.4
20260903042536 20 0 0.0 0.0 0.00 0.00 0.00 81 1015.4
20260903042036 20 0 0.0 0.0 0.00 0.00 0.00 81 1015.4
20260903041556 20 0 0.0 0.0 0.00 0.00 0.00 81 1015.3
20260903041035 20 0 0.0 0.0 0.00 0.00 0.00 81 1015.3
20260903040536 20 0 0.0 0.0 0.00 0.00 0.00 81 1015.3
20260903040110 20 0 0.0 0.0 0.00 0.00 0.00 81 1015.2
20260903035536 20 0 0.0 0.0 0.00 0.00 0.00 81 1015.1
20260903035036 20 0 0.0 0.0 0.00 0.00 0.00 81 1015.0
20260903034600 20 0 0.0 0.0 0.00 0.00 0.00 80 1015.0
20260903034036 20 0 0.0 0.0 0.00 0.00 0.00 80 1014.9
20260903033536 20 0 0.0 0.0 0.00 0.00 0.00 81 1014.9
20260903033100 20 0 0.0 0.0 0.00 0.00 0.00 80 1015.0
20260903032536 20 0 0.0 0.0 0.00 0.00 0.00 80 1014.8
20260903032037 20 0 0.0 0.0 0.00 0.00 0.00 80 1014.8
20260903031602 20 0 0.0 0.0 0.00 0.00 0.00 80 1014.6
20260903031035 20 0 0.0 0.0 0.00 0.00 0.00 80 1014.5
20260903030538 20 0 0.0 0.0 0.00 0.00 0.00 80 1014.4
20260903030110 20 0 0.0 0.0 0.00 0.00 0.00 80 1014.4
20260903025537 21 0 0.0 0.0 0.00 0.00 0.00 79 1014.4
20260903025036 21 0 0.0 0.0 0.00 0.00 0.00 79 1014.4
20260903024557 21 0 0.0 1.6 0.00 0.00 0.00 80 1014.4
20260903024035 21 0 0.0 1.6 0.00 0.00 0.00 79 1014.4
20260903023536 21 0 0.0 3.2 0.00 0.00 0.00 79 1014.4
20260903023107 21 0 0.0 3.2 0.00 0.00 0.00 79 1014.4
20260903022536 21 227 0.0 4.8 0.00 0.00 0.00 79 1014.4
20260903022038 21 227 0.0 6.4 0.00 0.00 0.00 78 1014.5
20260903021603 21 284 1.6 6.4 0.00 0.00 0.00 78 1014.5
20260903021036 21 300 0.0 4.8 0.00 0.00 0.00 77 1014.5
20260903020535 21 0 1.6 4.8 0.00 0.00 0.00 77 1014.5
20260903015532 21 284 1.6 6.4 0.00 0.00 0.00 76 1014.5
20260903015033 22 298 3.2 11.3 0.00 0.00 0.00 75 1014.6
20260903014600 22 262 1.6 11.3 0.00 0.00 0.00 75 1014.5
20260903014040 22 246 4.8 11.3 0.00 0.00 0.00 75 1014.5
20260903013538 22 0 3.2 11.3 0.00 0.00 0.00 75 1014.4
20260903013105 22 242 4.8 11.3 0.00 0.00 0.00 75 1014.5
20260903012539 22 292 3.2 9.7 0.00 0.00 0.00 74 1014.5
20260903012033 22 221 3.2 11.3 0.00 0.00 0.00 74 1014.5
20260903011610 22 273 4.8 12.9 0.00 0.00 0.00 73 1014.4
20260903011031 22 260 4.8 14.5 0.00 0.00 0.00 73 1014.3
20260903010531 22 259 4.8 14.5 0.00 0.00 0.00 73 1014.4
20260903005530 23 279 4.8 12.9 0.00 0.00 0.00 72 1014.4
20260903005032 23 285 3.2 12.9 0.00 0.00 0.00 71 1014.3
20260903004602 23 299 4.8 12.9 0.00 0.00 0.00 71 1014.3
20260903004032 23 248 6.4 11.3 0.00 0.00 0.00 71 1014.3
20260903003532 23 261 3.2 11.3 0.00 0.00 0.00 71 1014.3
20260903003057 23 226 4.8 12.9 0.00 0.00 0.00 70 1014.3
20260903002532 23 269 4.8 12.9 0.00 0.00 0.00 69 1014.3
20260903002032 23 292 4.8 12.9 0.00 0.00 0.00 68 1014.3
20260903001551 23 288 6.4 12.9 0.00 0.00 0.00 69 1014.4
20260903001031 23 290 4.8 12.9 0.00 0.00 0.00 69 1014.3
20260903000531 23 281 4.8 12.9 0.00 0.00 0.00 68 1014.4
20260902235532 23 290 4.8 14.5 0.00 0.00 0.00 71 1014.5
20260902235031 23 227 4.8 14.5 0.00 0.00 0.00 71 1014.5
20260902234551 23 288 4.8 14.5 0.00 0.00 0.00 70 1014.5
20260902234034 23 243 4.8 14.5 0.00 0.00 0.00 71 1014.5
20260902233531 23 238 4.8 17.7 0.00 0.00 0.00 70 1014.6
20260902233103 23 291 4.8 17.7 0.00 0.00 0.00 71 1014.7
20260902232532 23 273 6.4 16.1 0.00 0.00 0.00 71 1014.6
20260902232033 23 293 4.8 16.1 0.00 0.00 0.00 71 1014.6
20260902231558 23 272 8.0 16.1 0.00 0.00 0.00 71 1014.7
20260902231032 23 244 4.8 16.1 0.00 0.00 0.00 71 1014.6
20260902230535 24 215 6.4 16.1 0.00 0.00 0.00 71 1014.6
20260902230107 24 263 8.0 16.1 0.00 0.00 0.00 71 1014.8
20260902225531 24 259 4.8 14.5 0.00 0.00 0.00 70 1014.8
20260902225032 24 290 6.4 14.5 0.00 0.00 0.00 71 1014.9
20260902224603 24 277 8.0 14.5 0.00 0.00 0.00 70 1014.9
20260902224031 24 270 6.4 14.5 0.00 0.00 0.00 69 1015.0
20260902223531 24 221 6.4 12.9 0.00 0.00 0.00 70 1015.0
20260902223116 24 286 4.8 11.3 0.00 0.00 0.00 69 1015.0
20260902222530 24 283 6.4 16.1 0.00 0.00 0.00 70 1015.1
20260902222034 24 243 6.4 16.1 0.00 0.00 0.00 70 1015.1
20260902221555 24 304 4.8 19.3 0.00 0.00 0.00 70 1015.1
20260902221034 24 262 8.0 19.3 0.00 0.00 0.00 70 1015.2
20260902220532 24 279 6.4 16.1 0.00 0.00 0.00 69 1015.2
20260902220054 24 248 6.4 14.5 0.00 0.00 0.00 70 1015.2
20260902215534 24 287 6.4 14.5 0.00 0.00 0.00 68 1015.2
20260902215032 24 283 6.4 14.5 0.00 0.00 0.00 69 1015.2
20260902214555 24 268 6.4 14.5 0.00 0.00 0.00 69 1015.2
20260902214032 24 269 4.8 14.5 0.00 0.00 0.00 70 1015.2
20260902213532 24 290 4.8 16.1 0.00 0.00 0.00 70 1015.3
20260902213055 24 296 8.0 16.1 0.00 0.00 0.00 70 1015.3
20260902212533 24 306 8.0 14.5 0.00 0.00 0.00 70 1015.4
20260902212033 23 308 6.4 16.1 0.00 0.00 0.00 71 1015.5
20260902211556 23 207 8.0 16.1 0.00 0.00 0.00 72 1015.5
20260902211031 23 249 4.8 16.1 0.00 0.00 0.00 72 1015.5
20260902210532 23 259 8.0 16.1 0.00 0.00 0.00 71 1015.5
20260902210052 23 247 8.0 16.1 0.00 0.00 0.00 72 1015.5
20260902205531 23 299 8.0 19.3 0.00 0.00 0.00 72 1015.4
20260902205034 23 251 6.4 19.3 0.00 0.00 0.00 72 1015.5
20260902204630 23 283 6.4 14.5 0.00 0.00 0.00 73 1015.5
20260902204034 23 289 8.0 16.1 0.00 0.00 0.00 72 1015.5
20260902203534 23 296 6.4 16.1 0.00 0.00 0.00 73 1015.5
20260902203056 23 296 8.0 16.1 0.00 0.00 0.00 73 1015.5
20260902202533 23 303 6.4 14.5 0.00 0.00 0.00 73 1015.6
20260902202034 23 284 8.0 14.5 0.00 0.00 0.00 73 1015.6
20260902201558 23 273 8.0 14.5 0.00 0.00 0.00 74 1015.7
20260902201031 23 259 6.4 16.1 0.00 0.00 0.00 74 1015.7
20260902200532 23 285 6.4 16.1 0.00 0.00 0.00 74 1015.8
20260902200051 23 280 8.0 16.1 0.00 0.00 0.00 74 1015.9
20260902195532 23 306 6.4 16.1 0.00 0.00 0.00 74 1015.9
20260902195034 23 278 6.4 16.1 0.00 0.00 0.00 74 1015.8
20260902194602 23 283 8.0 16.1 0.00 0.00 0.00 74 1015.8
20260902194031 23 230 6.4 17.7 0.00 0.00 0.00 74 1015.8
20260902193532 23 267 8.0 17.7 0.00 0.00 0.00 74 1015.9
20260902193058 23 271 6.4 17.7 0.00 0.00 0.00 74 1016.0
20260902192531 23 263 6.4 12.9 0.00 0.00 0.00 75 1016.1
20260902192032 23 271 6.4 14.5 0.00 0.00 0.00 75 1016.1
20260902191555 23 231 6.4 14.5 0.00 0.00 0.00 75 1016.1
20260902191031 23 249 8.0 16.1 0.00 0.00 0.00 75 1016.1
20260902190535 23 266 6.4 16.1 0.00 0.00 0.00 75 1016.0
20260902185538 23 289 6.4 14.5 0.00 0.00 0.00 75 1016.0
20260902185036 23 294 4.8 12.9 0.00 0.00 0.00 76 1016.1
20260902184605 23 309 4.8 11.3 0.00 0.00 0.00 76 1016.1
20260902184034 23 227 4.8 16.1 0.00 0.00 0.00 76 1016.2
20260902183535 22 243 6.4 16.1 0.00 0.00 0.00 76 1016.3
20260902183112 22 225 4.8 17.7 0.00 0.00 0.00 76 1016.3
20260902182536 22 289 6.4 17.7 0.00 0.00 0.00 76 1016.4
20260902182035 22 251 4.8 12.9 0.00 0.00 0.00 77 1016.5
20260902181612 22 244 4.8 12.9 0.00 0.00 0.00 77 1016.5
20260902181032 22 261 6.4 12.9 0.00 0.00 0.00 77 1016.6
20260902180532 22 291 4.8 12.9 0.00 0.00 0.00 77 1016.5
20260902180057 22 229 4.8 11.3 0.00 0.00 0.00 78 1016.5
20260902175532 22 300 4.8 12.9 0.00 0.00 0.00 77 1016.5
20260902175036 22 284 4.8 12.9 0.00 0.00 0.00 78 1016.5
20260902174602 22 240 4.8 12.9 0.00 0.00 0.00 79 1016.5
20260902174035 22 306 4.8 12.9 0.00 0.00 0.00 79 1016.4
20260902173535 22 308 6.4 12.9 0.00 0.00 0.00 79 1016.4
20260902173114 22 265 4.8 12.9 0.00 0.00 0.00 79 1016.4
20260902172536 22 212 6.4 12.9 0.00 0.00 0.00 78 1016.4
20260902172035 22 252 4.8 12.9 0.00 0.00 0.00 79 1016.4
20260902171606 22 273 4.8 12.9 0.00 0.00 0.00 79 1016.4
20260902171036 21 234 4.8 9.7 0.00 0.00 0.00 78 1016.3
20260902170532 21 255 3.2 9.7 0.00 0.00 0.00 80 1016.2
20260902170057 21 192 0.0 8.0 0.00 0.00 0.00 81 1016.2
20260902165536 21 219 0.0 8.0 0.00 0.00 0.00 82 1016.1
20260902165036 20 204 1.6 6.4 0.00 0.00 0.00 83 1016.1
20260902164605 20 200 0.0 4.8 0.00 0.00 0.00 84 1016.2
20260902164036 20 0 0.0 4.8 0.00 0.00 0.00 85 1016.2
20260902163536 20 0 0.0 8.0 0.00 0.00 0.00 85 1016.2
20260902163106 20 0 1.6 8.0 0.00 0.00 0.00 86 1016.2
20260902162536 20 38 1.6 8.0 0.00 0.00 0.00 86 1016.2
20260902162036 20 0 1.6 8.0 0.00 0.00 0.00 87 1016.3
20260902161600 19 244 3.2 8.0 0.00 0.00 0.00 88 1016.3
20260902161035 19 272 3.2 8.0 0.00 0.00 0.00 89 1016.3
20260902160532 19 237 0.0 4.8 0.00 0.00 0.00 89 1016.2
20260902160054 18 0 1.6 6.4 0.00 0.00 0.00 90 1016.3
20260902155535 18 0 1.6 6.4 0.00 0.00 0.00 90 1016.3
20260902155035 18 233 1.6 3.2 0.00 0.00 0.00 90 1016.1
20260902154552 18 0 0.0 3.2 0.00 0.00 0.00 91 1016.1
20260902154031 18 0 0.0 3.2 0.00 0.00 0.00 90 1016.1
20260902153532 18 0 0.0 3.2 0.00 0.00 0.00 91 1016.1
20260902153059 18 0 0.0 1.6 0.00 0.00 0.00 91 1016.2
20260902152538 18 0 0.0 1.6 0.00 0.00 0.00 90 1016.1
20260902152035 18 0 0.0 1.6 0.00 0.00 0.00 91 1016.1
20260902151551 18 0 0.0 1.6 0.00 0.00 0.00 91 1016.1
20260902151036 18 0 0.0 1.6 0.00 0.00 0.00 91 1016.2
20260902150532 17 0 0.0 1.6 0.00 0.00 0.00 91 1016.1
20260902150055 17 0 0.0 1.6 0.00 0.00 0.00 91 1016.1
20260902145534 17 0 0.0 3.2 0.00 0.00 0.00 91 1016.2
20260902145036 17 0 0.0 3.2 0.00 0.00 0.00 91 1016.2
20260902144603 17 0 0.0 1.6 0.00 0.00 0.00 91 1016.3
20260902144032 17 0 0.0 1.6 0.00 0.00 0.00 91 1016.2
20260902143533 17 0 0.0 1.6 0.00 0.00 0.00 91 1016.1
20260902143103 17 0 0.0 1.6 0.00 0.00 0.00 91 1016.0
20260902142533 17 0 0.0 1.6 0.00 0.00 0.00 91 1016.1
20260902142035 17 0 0.0 0.0 0.00 0.00 0.00 91 1016.1
20260902141557 17 0 0.0 0.0 0.00 0.00 0.00 91 1016.1
20260902141033 17 0 0.0 0.0 0.00 0.00 0.00 91 1016.0
20260902140535 17 0 0.0 0.0 0.00 0.00 0.00 91 1015.9
20260902140056 17 0 0.0 0.0 0.00 0.00 0.00 91 1015.9
20260902135535 17 0 0.0 0.0 0.00 0.00 0.00 91 1015.8
20260902135032 17 0 0.0 0.0 0.00 0.00 0.00 91 1015.7
20260902134555 17 0 0.0 0.0 0.00 0.00 0.00 90 1015.6
20260902134032 17 0 0.0 0.0 0.00 0.00 0.00 90 1015.5
20260902133532 17 0 0.0 0.0 0.00 0.00 0.00 90 1015.5
20260902133055 17 0 0.0 0.0 0.00 0.00 0.00 90 1015.5
20260902132532 17 0 0.0 0.0 0.00 0.00 0.00 90 1015.5
20260902132035 17 0 0.0 0.0 0.00 0.00 0.00 90 1015.5
20260902131559 17 0 0.0 0.0 0.00 0.00 0.00 90 1015.5
20260902131033 17 0 0.0 0.0 0.00 0.00 0.00 90 1015.4
20260902130537 17 0 0.0 0.0 0.00 0.00 0.00 91 1015.4
20260902130100 17 0 0.0 0.0 0.00 0.00 0.00 91 1015.4
20260902125535 17 0 0.0 0.0 0.00 0.00 0.00 90 1015.4
20260902125032 17 0 0.0 0.0 0.00 0.00 0.00 90 1015.4
20260902124554 17 0 0.0 0.0 0.00 0.00 0.00 90 1015.3
20260902124035 17 0 0.0 0.0 0.00 0.00 0.00 90 1015.3
20260902123535 17 0 0.0 0.0 0.00 0.00 0.00 90 1015.4
20260902123101 17 0 0.0 0.0 0.00 0.00 0.00 90 1015.3
20260902122535 17 0 0.0 0.0 0.00 0.00 0.00 90 1015.3
20260902122033 17 0 0.0 0.0 0.00 0.00 0.00 90 1015.3
20260902121556 17 0 0.0 0.0 0.00 0.00 0.00 90 1015.3
20260902121034 17 0 0.0 0.0 0.00 0.00 0.00 90 1015.2
20260902120532 17 0 0.0 0.0 0.00 0.00 0.00 90 1015.2
20260902120105 17 0 0.0 0.0 0.00 0.00 0.00 90 1015.3
20260902115532 17 0 0.0 0.0 0.00 0.00 0.00 90 1015.3
20260902115032 17 0 0.0 0.0 0.00 0.00 0.00 90 1015.3
20260902114601 17 0 0.0 0.0 0.00 0.00 0.00 90 1015.3
20260902114032 17 0 0.0 0.0 0.00 0.00 0.00 90 1015.3
20260902113531 17 0 0.0 0.0 0.00 0.00 0.00 90 1015.4
20260902113101 17 0 0.0 0.0 0.00 0.00 0.00 90 1015.4
20260902112534 17 0 0.0 0.0 0.00 0.00 0.00 89 1015.4
20260902112035 17 0 0.0 0.0 0.00 0.00 0.00 89 1015.4
20260902111602 17 0 0.0 0.0 0.00 0.00 0.00 89 1015.4
20260902111035 17 0 0.0 0.0 0.00 0.00 0.00 89 1015.3
20260902110535 17 0 0.0 0.0 0.00 0.00 0.00 89 1015.4
20260902110103 17 0 0.0 0.0 0.00 0.00 0.00 89 1015.4
20260902105535 17 0 0.0 0.0 0.00 0.00 0.00 89 1015.4
20260902105035 17 0 0.0 0.0 0.00 0.00 0.00 89 1015.3
20260902104615 17 0 0.0 0.0 0.00 0.00 0.00 89 1015.4
20260902104036 17 0 0.0 0.0 0.00 0.00 0.00 89 1015.5
20260902103531 17 0 0.0 0.0 0.00 0.00 0.00 89 1015.5
20260902103117 18 0 0.0 0.0 0.00 0.00 0.00 89 1015.5
20260902102532 18 0 0.0 0.0 0.00 0.00 0.00 89 1015.6
20260902102031 18 0 0.0 0.0 0.00 0.00 0.00 88 1015.6
20260902101605 18 0 0.0 0.0 0.00 0.00 0.00 88 1015.6
20260902101032 18 0 0.0 0.0 0.00 0.00 0.00 88 1015.6
20260902100535 18 0 0.0 0.0 0.00 0.00 0.00 88 1015.6
20260902100057 18 0 0.0 0.0 0.00 0.00 0.00 88 1015.7
20260902095534 18 0 0.0 0.0 0.00 0.00 0.00 88 1015.8
20260902095037 18 0 0.0 0.0 0.00 0.00 0.00 88 1015.7
20260902094552 18 0 0.0 0.0 0.00 0.00 0.00 88 1015.8
20260902094035 18 0 0.0 0.0 0.00 0.00 0.00 88 1015.8
20260902093532 18 0 0.0 0.0 0.00 0.00 0.00 88 1015.8
20260902093051 18 0 0.0 0.0 0.00 0.00 0.00 88 1015.8
20260902092531 18 0 0.0 0.0 0.00 0.00 0.00 88 1015.8
20260902092035 18 0 0.0 0.0 0.00 0.00 0.00 88 1015.9
20260902091556 18 0 0.0 0.0 0.00 0.00 0.00 88 1016.0
20260902091035 18 0 0.0 0.0 0.00 0.00 0.00 87 1016.0
20260902090535 18 0 0.0 0.0 0.00 0.00 0.00 87 1016.0
20260902090057 18 0 0.0 0.0 0.00 0.00 0.00 87 1016.1
20260902085534 18 0 0.0 0.0 0.00 0.00 0.00 87 1016.1
20260902085034 18 0 0.0 0.0 0.00 0.00 0.00 87 1016.1
20260902084556 18 0 0.0 0.0 0.00 0.00 0.00 87 1016.1
20260902084035 18 0 0.0 0.0 0.00 0.00 0.00 87 1016.2
20260902083536 18 0 0.0 0.0 0.00 0.00 0.00 87 1016.2
20260902083055 18 0 0.0 0.0 0.00 0.00 0.00 87 1016.1
20260902082531 18 0 0.0 0.0 0.00 0.00 0.00 87 1016.0
20260902082035 18 0 0.0 0.0 0.00 0.00 0.00 86 1016.0
20260902081557 18 0 0.0 0.0 0.00 0.00 0.00 86 1016.1
20260902081031 18 0 0.0 1.6 0.00 0.00 0.00 86 1016.1
20260902080535 18 0 0.0 1.6 0.00 0.00 0.00 86 1016.0
20260902080054 18 0 0.0 1.6 0.00 0.00 0.00 86 1016.1
20260902075534 19 0 0.0 0.0 0.00 0.00 0.00 86 1016.1
20260902075035 19 0 0.0 0.0 0.00 0.00 0.00 86 1016.1
20260902074551 19 0 0.0 0.0 0.00 0.00 0.00 86 1016.1
20260902074034 19 0 0.0 0.0 0.00 0.00 0.00 86 1016.0
20260902073534 19 0 0.0 0.0 0.00 0.00 0.00 86 1015.9
20260902073051 19 0 0.0 0.0 0.00 0.00 0.00 86 1016.0
20260902072538 19 0 0.0 0.0 0.00 0.00 0.00 86 1015.9
20260902072036 19 0 0.0 0.0 0.00 0.00 0.00 86 1015.9
20260902071558 19 0 0.0 0.0 0.00 0.00 0.00 86 1015.9
20260902071031 19 0 0.0 0.0 0.00 0.00 0.00 86 1015.8
20260902070532 19 0 0.0 0.0 0.00 0.00 0.00 86 1015.9
20260902070100 20 0 0.0 0.0 0.00 0.00 0.00 86 1015.8
20260902065537 20 0 0.0 0.0 0.00 0.00 0.00 86 1015.8
20260902065035 20 0 0.0 1.6 0.00 0.00 0.00 86 1015.8
20260902064604 20 0 0.0 1.6 0.00 0.00 0.00 86 1015.7